FW6934 Weather Reports


time (UTC)temp
C
wind
direction
speed
KPH
gust
KPH
rain 1hr
cm
rain 24hr
cm
rain mn
cm
humidity
%
barometer
mb
20260906174601 13 95 0.0 0.0 0.15 0.64 0.64 90 1004.6
20260906174104 13 95 0.0 0.0 0.18 0.64 0.64 90 1004.5
20260906173606 13 94 0.0 0.0 0.18 0.64 0.64 90 1004.4
20260906173047 13 94 0.0 4.8 0.18 0.61 0.61 90 1004.4
20260906172547 13 94 0.0 4.8 0.18 0.61 0.61 90 1004.4
20260906172047 13 90 0.0 1.6 0.15 0.58 0.58 90 1004.3
20260906171515 13 91 0.0 4.8 0.15 0.56 0.56 90 1004.3
20260906171028 13 91 0.0 3.2 0.15 0.56 0.56 90 1004.3
20260906170525 13 187 0.0 0.0 0.13 0.53 0.53 90 1004.2
20260906170055 13 190 0.0 0.0 0.13 0.51 0.51 90 1004.1
20260906165502 13 190 0.0 0.0 0.13 0.51 0.51 90 1004.1
20260906165112 13 190 0.0 0.0 0.13 0.48 0.48 90 1004.1
20260906164535 13 190 0.0 0.0 0.13 0.48 0.48 90 1004.0
20260906164046 13 190 0.0 0.0 0.13 0.46 0.46 90 1004.0
20260906163555 13 190 0.0 0.0 0.15 0.46 0.46 89 1004.0
20260906163013 13 190 0.0 0.0 0.13 0.43 0.43 89 1003.9
20260906162530 13 190 0.0 0.0 0.13 0.43 0.43 89 1003.9
20260906162041 13 190 0.0 0.0 0.15 0.43 0.43 89 1003.9
20260906161503 13 190 0.0 0.0 0.13 0.41 0.41 89 1004.0
20260906161008 13 190 0.0 0.0 0.13 0.41 0.41 89 1004.0
20260906160515 13 190 0.0 0.0 0.15 0.41 0.41 89 1003.9
20260906160054 13 190 0.0 0.0 0.15 0.38 0.38 89 1004.0
20260906155552 13 190 0.0 0.0 0.18 0.38 0.38 89 1003.9
20260906155058 13 190 0.0 0.0 0.15 0.36 0.36 89 1003.9
20260906154536 13 190 0.0 0.0 0.18 0.36 0.36 89 1004.0
20260906154037 13 190 0.0 0.0 0.18 0.33 0.33 89 1004.0
20260906153544 13 190 0.0 0.0 0.15 0.30 0.30 89 1003.9
20260906153027 13 190 0.0 0.0 0.18 0.30 0.30 89 1004.0
20260906152514 13 190 0.0 0.0 0.18 0.30 0.30 89 1003.9
20260906152019 13 190 0.0 0.0 0.18 0.28 0.28 89 1004.0
20260906151559 13 190 0.0 0.0 0.18 0.28 0.28 89 1003.8
20260906151101 13 190 0.0 0.0 0.20 0.28 0.28 89 1003.8
20260906150604 13 190 0.0 0.0 0.18 0.25 0.25 89 1003.6
20260906150037 13 190 0.0 0.0 0.15 0.23 0.23 89 1003.6
20260906145542 13 190 0.0 0.0 0.15 0.20 0.23 88 1003.7
20260906145050 13 190 0.0 0.0 0.15 0.20 0.20 88 1003.6
20260906144519 13 190 0.0 0.0 0.15 0.18 0.18 88 1003.7
20260906144024 13 190 0.0 0.0 0.13 0.15 0.15 88 1003.6
20260906143535 13 190 0.0 0.0 0.13 0.15 0.15 88 1003.7
20260906143046 13 190 0.0 0.0 0.10 0.13 0.13 88 1003.5
20260906142554 13 190 0.0 0.0 0.08 0.10 0.13 88 1003.5
20260906142101 13 190 0.0 0.0 0.08 0.10 0.10 88 1003.5
20260906141529 13 190 0.0 0.0 0.08 0.10 0.10 88 1003.4
20260906141037 13 190 0.0 0.0 0.05 0.08 0.08 88 1003.4
20260906140546 13 190 0.0 0.0 0.05 0.08 0.08 88 1003.3
20260906140035 13 190 0.0 0.0 0.05 0.08 0.08 87 1003.2
20260906135519 13 190 0.0 0.0 0.03 0.05 0.05 87 1003.1
20260906135026 13 190 0.0 0.0 0.03 0.05 0.05 87 1003.0
20260906134555 13 190 0.0 0.0 0.00 0.03 0.03 87 1003.0
20260906134101 13 190 0.0 0.0 0.00 0.03 0.03 87 1002.9
20260906133502 13 190 0.0 1.6 0.03 0.03 0.03 87 1002.8
20260906133026 13 190 0.0 3.2 0.03 0.03 0.03 87 1002.9
20260906132532 13 190 1.6 3.2 0.03 0.03 0.03 87 1002.8
20260906132040 13 190 1.6 3.2 0.03 0.03 0.03 87 1002.8
20260906131508 13 190 0.0 3.2 0.03 0.03 0.03 87 1002.8
20260906131025 13 190 1.6 3.2 0.03 0.03 0.03 86 1002.8
20260906130529 13 190 0.0 3.2 0.03 0.03 0.03 86 1002.8
20260906130110 13 190 0.0 3.2 0.03 0.03 0.03 86 1002.9
20260906125501 13 190 1.6 3.2 0.03 0.03 0.03 86 1002.8
20260906125104 13 190 0.0 3.2 0.03 0.03 0.03 86 1002.9
20260906124545 13 190 1.6 3.2 0.03 0.03 0.03 86 1002.9
20260906124051 13 188 0.0 3.2 0.03 0.03 0.03 85 1002.9
20260906123601 13 188 0.0 3.2 0.03 0.03 0.03 85 1002.9
20260906123038 13 188 0.0 3.2 0.00 0.00 0.00 85 1003.0
20260906122538 13 188 0.0 4.8 0.00 0.00 0.00 85 1003.1
20260906122045 13 188 1.6 4.8 0.00 0.00 0.00 85 1003.0
20260906121509 13 188 0.0 3.2 0.00 0.00 0.00 85 1003.0
20260906121018 13 188 0.0 4.8 0.00 0.00 0.00 85 1003.0
20260906120539 13 188 0.0 4.8 0.00 0.00 0.00 85 1003.1
20260906115508 13 159 1.6 4.8 0.00 0.00 0.00 85 1003.1
20260906115019 13 158 0.0 3.2 0.00 0.00 0.00 85 1003.1
20260906114558 13 158 0.0 4.8 0.00 0.00 0.00 85 1003.2
20260906114059 13 158 0.0 4.8 0.00 0.00 0.00 85 1003.2
20260906113504 13 254 0.0 0.0 0.00 0.00 0.00 85 1003.1
20260906113044 13 254 0.0 0.0 0.00 0.00 0.00 85 1003.1
20260906112544 13 254 0.0 0.0 0.00 0.00 0.00 85 1003.1
20260906112055 13 254 0.0 0.0 0.00 0.00 0.00 85 1003.1
20260906111550 13 254 0.0 0.0 0.00 0.00 0.00 85 1003.0
20260906111049 13 254 0.0 1.6 0.00 0.00 0.00 85 1003.0
20260906110546 13 254 0.0 3.2 0.00 0.00 0.00 85 1003.0
20260906110014 13 254 1.6 3.2 0.00 0.00 0.00 85 1003.0
20260906105535 13 254 0.0 3.2 0.00 0.00 0.00 85 1002.9
20260906105035 13 254 1.6 3.2 0.00 0.00 0.00 84 1002.9
20260906104603 13 254 0.0 1.6 0.00 0.00 0.00 84 1003.0
20260906104009 13 254 0.0 1.6 0.00 0.00 0.00 84 1003.0
20260906103508 13 254 0.0 1.6 0.00 0.00 0.00 84 1003.1
20260906103046 13 254 0.0 3.2 0.00 0.00 0.00 84 1003.0
20260906102553 13 254 0.0 4.8 0.00 0.00 0.00 84 1002.9
20260906102100 13 254 0.0 4.8 0.00 0.00 0.00 84 1002.9
20260906101532 13 254 0.0 1.6 0.00 0.00 0.00 84 1002.9
20260906101038 13 254 0.0 1.6 0.00 0.00 0.00 84 1002.8
20260906100555 13 254 0.0 3.2 0.00 0.00 0.00 84 1002.8
20260906100031 13 254 0.0 3.2 0.00 0.00 0.00 84 1002.8
20260906095528 13 254 0.0 4.8 0.00 0.00 0.00 84 1002.8
20260906095036 13 254 1.6 4.8 0.00 0.00 0.00 84 1002.8
20260906094611 13 254 0.0 1.6 0.00 0.00 0.00 84 1002.8
20260906094004 13 254 0.0 1.6 0.00 0.00 0.00 84 1002.8
20260906093510 13 254 0.0 3.2 0.00 0.00 0.00 84 1002.7
20260906093100 13 254 0.0 3.2 0.00 0.00 0.00 83 1002.7
20260906092600 13 254 0.0 0.0 0.00 0.00 0.00 83 1002.8
20260906092011 13 254 0.0 1.6 0.00 0.00 0.00 83 1002.8
20260906091548 13 254 0.0 3.2 0.00 0.00 0.00 83 1002.9
20260906091056 13 254 0.0 3.2 0.00 0.00 0.00 83 1002.9
20260906090501 14 254 0.0 3.2 0.00 0.00 0.00 83 1002.8
20260906090107 14 254 1.6 3.2 0.00 0.03 0.00 83 1002.7
20260906085549 14 254 0.0 1.6 0.00 0.03 0.00 83 1002.7
20260906085050 14 254 0.0 3.2 0.00 0.03 0.00 83 1002.7
20260906084533 14 254 0.0 3.2 0.00 0.03 0.00 83 1002.8
20260906084036 14 254 0.0 1.6 0.00 0.03 0.00 83 1002.9
20260906083538 14 254 0.0 3.2 0.00 0.03 0.00 83 1002.8
20260906083031 14 254 0.0 3.2 0.00 0.03 0.00 83 1002.8
20260906082526 14 254 0.0 3.2 0.00 0.03 0.00 83 1002.8
20260906082036 14 254 0.0 3.2 0.00 0.03 0.00 83 1002.8
20260906081603 14 254 0.0 3.2 0.00 0.03 0.00 83 1002.8
20260906081020 14 254 0.0 1.6 0.00 0.03 0.00 83 1002.8
20260906080526 14 254 0.0 3.2 0.00 0.03 0.00 83 1002.8
20260906080055 14 254 0.0 3.2 0.00 0.03 0.00 83 1002.8
20260906075558 14 254 0.0 1.6 0.00 0.03 0.00 83 1002.8
20260906075104 14 254 0.0 1.6 0.00 0.03 0.00 83 1002.8
20260906074546 14 254 0.0 3.2 0.00 0.03 0.00 84 1002.8
20260906074038 13 254 0.0 3.2 0.00 0.03 0.00 84 1002.8
20260906073549 13 252 0.0 1.6 0.00 0.03 0.00 84 1002.9
20260906073019 13 252 0.0 4.8 0.00 0.03 0.00 84 1003.0
20260906072524 13 252 1.6 4.8 0.00 0.03 0.00 84 1002.9
20260906072032 13 284 0.0 3.2 0.00 0.03 0.00 84 1003.0
20260906071502 13 284 0.0 3.2 0.00 0.03 0.00 84 1003.0
20260906071006 13 284 1.6 4.8 0.00 0.03 0.00 84 1003.1
20260906070514 13 291 1.6 4.8 0.00 0.03 0.00 84 1003.0
20260906070026 13 292 0.0 3.2 0.00 0.03 0.03 83 1003.2
20260906065535 13 292 0.0 3.2 0.00 0.03 0.03 83 1003.2
20260906065035 13 292 0.0 3.2 0.00 0.03 0.03 83 1003.2
20260906064504 13 292 1.6 3.2 0.00 0.03 0.03 83 1003.2
20260906064013 13 292 1.6 3.2 0.00 0.03 0.03 83 1003.2
20260906063526 13 292 0.0 3.2 0.00 0.03 0.03 83 1003.2
20260906063054 13 292 0.0 3.2 0.00 0.03 0.03 83 1003.2
20260906062557 13 292 1.6 3.2 0.00 0.03 0.03 83 1003.2
20260906062101 13 292 0.0 3.2 0.00 0.03 0.03 82 1003.2
20260906061510 13 292 0.0 4.8 0.00 0.03 0.03 82 1003.1
20260906061018 13 292 3.2 4.8 0.00 0.03 0.03 82 1003.2
20260906060540 13 292 0.0 3.2 0.00 0.03 0.03 82 1003.3
20260906060054 13 292 0.0 3.2 0.00 0.03 0.03 82 1003.2
20260906055600 13 292 1.6 4.8 0.00 0.03 0.03 82 1003.2
20260906055008 13 292 3.2 4.8 0.00 0.03 0.03 81 1003.2
20260906054542 13 292 1.6 3.2 0.00 0.03 0.03 81 1003.2
20260906054042 14 292 1.6 4.8 0.00 0.03 0.03 81 1003.2
20260906053553 14 292 1.6 4.8 0.00 0.03 0.03 81 1003.3
20260906053030 14 296 0.0 1.6 0.00 0.03 0.03 80 1003.3
20260906052539 14 296 0.0 3.2 0.00 0.03 0.03 80 1003.4
20260906052043 14 296 0.0 3.2 0.00 0.03 0.03 80 1003.4
20260906051523 14 296 1.6 3.2 0.00 0.03 0.03 79 1003.4
20260906051024 14 296 1.6 4.8 0.00 0.03 0.03 79 1003.3
20260906050533 14 296 0.0 4.8 0.00 0.03 0.03 79 1003.4
20260906050004 14 297 1.6 4.8 0.00 0.03 0.03 79 1003.4
20260906045556 14 298 1.6 4.8 0.00 0.03 0.03 79 1003.4
20260906045043 14 281 1.6 4.8 0.00 0.03 0.03 78 1003.5
20260906044504 14 235 1.6 4.8 0.00 0.03 0.03 78 1003.5
20260906044053 14 232 0.0 4.8 0.00 0.03 0.03 77 1003.5
20260906043542 14 232 1.6 4.8 0.00 0.03 0.03 77 1003.5
20260906043015 15 223 3.2 4.8 0.00 0.03 0.03 77 1003.6
20260906042602 15 226 1.6 4.8 0.00 0.03 0.03 76 1003.6
20260906042049 15 294 0.0 8.0 0.00 0.03 0.03 76 1003.7
20260906041058 15 258 0.0 1.6 0.00 0.03 0.03 76 1003.6
20260906040609 15 258 0.0 3.2 0.00 0.03 0.03 75 1003.5
20260906040042 15 258 0.0 3.2 0.00 0.03 0.03 74 1003.4
20260906035551 15 258 0.0 3.2 0.00 0.03 0.03 74 1003.4
20260906035056 15 258 1.6 3.2 0.00 0.03 0.03 74 1003.3
20260906034535 15 258 1.6 3.2 0.00 0.03 0.03 73 1003.4
20260906034035 15 258 1.6 4.8 0.00 0.03 0.03 73 1003.3
20260906033544 15 258 1.6 4.8 0.00 0.03 0.03 73 1003.2
20260906033010 15 258 1.6 4.8 0.00 0.03 0.03 73 1003.2
20260906032526 16 258 1.6 4.8 0.00 0.03 0.03 74 1003.1
20260906032032 16 258 1.6 4.8 0.00 0.03 0.03 73 1003.2
20260906031600 16 258 0.0 3.2 0.00 0.03 0.03 72 1003.1
20260906031007 16 258 0.0 4.8 0.00 0.03 0.03 71 1003.1
20260906030514 16 258 1.6 4.8 0.00 0.03 0.03 71 1003.0
20260906030054 16 258 1.6 4.8 0.00 0.03 0.03 72 1003.0
20260906025600 16 258 1.6 4.8 0.00 0.03 0.03 71 1003.0
20260906025020 16 258 1.6 4.8 0.00 0.03 0.03 70 1003.0
20260906024607 16 258 1.6 4.8 0.00 0.03 0.03 69 1003.0
20260906024055 17 258 0.0 3.2 0.00 0.03 0.03 69 1003.0
20260906023558 17 258 1.6 4.8 0.00 0.03 0.03 69 1003.0
20260906023038 17 258 1.6 6.4 0.00 0.03 0.03 69 1003.0
20260906022547 17 258 1.6 6.4 0.00 0.03 0.03 68 1003.0
20260906022052 17 258 3.2 6.4 0.00 0.03 0.03 68 1003.1
20260906021506 17 258 1.6 6.4 0.00 0.03 0.03 68 1003.0
20260906021023 17 263 1.6 6.4 0.00 0.03 0.03 67 1003.1
20260906020530 17 264 1.6 4.8 0.00 0.03 0.03 66 1003.1
20260906020106 17 264 0.0 0.0 0.00 0.03 0.03 66 1003.1
20260906015510 18 264 0.0 3.2 0.00 0.03 0.03 65 1003.1
20260906015022 18 264 0.0 3.2 0.00 0.03 0.03 64 1003.2
20260906014556 18 264 0.0 4.8 0.00 0.03 0.03 64 1003.1
20260906014007 18 264 1.6 4.8 0.00 0.03 0.03 63 1003.2
20260906013517 18 264 1.6 4.8 0.00 0.03 0.03 63 1003.2
20260906013036 19 270 1.6 3.2 0.00 0.03 0.03 63 1003.3
20260906012546 19 270 0.0 4.8 0.00 0.03 0.03 62 1003.2
20260906012049 19 270 1.6 6.4 0.00 0.03 0.03 61 1003.2
20260906011518 20 305 1.6 6.4 0.00 0.03 0.03 60 1003.2
20260906011034 20 283 1.6 8.0 0.00 0.03 0.03 58 1003.1
20260906010539 20 292 1.6 8.0 0.00 0.03 0.03 59 1003.2
20260906010027 20 302 4.8 8.0 0.00 0.03 0.03 59 1003.1
20260906005527 20 323 1.6 9.7 0.00 0.03 0.03 62 1003.0
20260906005034 20 284 4.8 9.7 0.00 0.03 0.03 64 1003.0
20260906004502 20 9 1.6 9.7 0.00 0.03 0.03 60 1003.0
20260906004015 20 15 3.2 9.7 0.00 0.03 0.03 58 1003.1
20260906003522 20 44 6.4 9.7 0.00 0.03 0.03 59 1003.2
20260906003052 20 67 3.2 9.7 0.00 0.03 0.03 56 1003.2
20260906002557 20 42 4.8 6.4 0.00 0.03 0.03 62 1003.1
20260906002005 20 51 0.0 4.8 0.00 0.03 0.03 60 1003.3
20260906001538 20 54 0.0 3.2 0.00 0.03 0.03 59 1003.2
20260906001032 20 40 0.0 3.2 0.00 0.03 0.03 60 1003.2
20260906000539 20 34 1.6 6.4 0.00 0.03 0.03 59 1003.2
20260906000004 20 34 3.2 6.4 0.00 0.05 0.03 60 1003.1
20260905235518 20 45 3.2 6.4 0.00 0.05 0.03 61 1003.0
20260905235025 20 343 3.2 6.4 0.00 0.05 0.03 61 1003.2
20260905234556 20 332 0.0 4.8 0.00 0.05 0.03 59 1003.2
20260905234102 20 332 1.6 4.8 0.00 0.05 0.03 65 1003.2
20260905233502 20 241 0.0 6.4 0.00 0.05 0.03 61 1003.2
20260905233044 20 236 1.6 8.0 0.00 0.05 0.03 57 1003.3
20260905232551 19 325 3.2 8.0 0.00 0.05 0.03 60 1003.2
20260905232057 19 54 1.6 6.4 0.00 0.05 0.03 61 1003.2
20260905231541 20 322 1.6 4.8 0.00 0.05 0.03 58 1003.3
20260905231039 20 133 0.0 3.2 0.00 0.05 0.03 59 1003.4
20260905230549 20 133 1.6 9.7 0.00 0.05 0.03 57 1003.4
20260905230108 20 139 1.6 9.7 0.00 0.05 0.03 58 1003.5
20260905225505 20 190 1.6 6.4 0.00 0.05 0.03 58 1003.6
20260905225013 20 26 1.6 6.4 0.00 0.05 0.03 57 1003.5
20260905224550 21 45 1.6 6.4 0.00 0.05 0.03 58 1003.5
20260905224056 20 202 0.0 16.1 0.00 0.05 0.03 60 1003.6
20260905223604 20 217 1.6 16.1 0.00 0.05 0.03 61 1003.6
20260905223043 20 61 3.2 9.7 0.00 0.05 0.03 65 1003.7
20260905222544 20 355 6.4 9.7 0.00 0.05 0.03 66 1003.7
20260905222049 20 37 4.8 6.4 0.00 0.05 0.03 63 1003.8
20260905221523 20 63 1.6 4.8 0.00 0.05 0.03 68 1003.9
20260905221034 20 279 1.6 4.8 0.00 0.05 0.03 67 1003.9
20260905220537 20 265 1.6 4.8 0.00 0.05 0.03 64 1003.9
20260905220003 20 57 0.0 4.8 0.00 0.05 0.03 62 1003.9
20260905215523 20 57 1.6 4.8 0.00 0.05 0.03 63 1003.9
20260905215027 20 70 1.6 4.8 0.00 0.05 0.03 63 1003.9
20260905214555 19 70 1.6 4.8 0.00 0.05 0.03 65 1004.0
20260905214001 19 62 1.6 4.8 0.00 0.05 0.03 66 1004.0
20260905213510 19 64 0.0 4.8 0.00 0.05 0.03 68 1004.0
20260905213054 19 55 0.0 9.7 0.00 0.05 0.03 69 1004.0
20260905212555 18 65 3.2 9.7 0.00 0.05 0.03 66 1004.2
20260905212005 18 288 0.0 4.8 0.00 0.05 0.03 68 1004.1
20260905211545 18 298 1.6 6.4 0.00 0.05 0.03 70 1004.2
20260905211047 18 312 1.6 9.7 0.00 0.05 0.03 66 1004.2
20260905210556 18 269 3.2 9.7 0.00 0.05 0.03 66 1004.2
20260905210007 19 53 4.8 6.4 0.00 0.05 0.03 71 1004.3
20260905205513 18 5 0.0 8.0 0.00 0.05 0.03 69 1004.3
20260905205021 19 12 1.6 8.0 0.00 0.05 0.03 69 1004.3
20260905204607 19 51 4.8 8.0 0.00 0.05 0.03 69 1004.3
20260905204016 19 39 1.6 6.4 0.00 0.05 0.03 72 1004.3
20260905203522 18 30 1.6 6.4 0.00 0.05 0.03 68 1004.4
20260905203055 18 105 0.0 4.8 0.00 0.05 0.03 71 1004.4
20260905202555 18 13 0.0 6.4 0.00 0.05 0.03 68 1004.6
20260905202103 17 14 3.2 6.4 0.00 0.05 0.03 70 1004.5
20260905201538 17 311 0.0 4.8 0.00 0.05 0.03 73 1004.5
20260905201029 18 302 1.6 4.8 0.00 0.05 0.03 74 1004.5
20260905200540 18 259 1.6 4.8 0.00 0.05 0.03 67 1004.5
20260905200007 18 254 1.6 4.8 0.00 0.05 0.03 67 1004.6
20260905195526 18 182 1.6 4.8 0.00 0.05 0.03 69 1004.6
20260905195030 18 180 0.0 3.2 0.00 0.05 0.03 70 1004.6
20260905194557 18 180 0.0 3.2 0.00 0.05 0.03 69 1004.6
20260905194003 18 180 0.0 3.2 0.00 0.05 0.03 68 1004.8
20260905193512 17 180 0.0 4.8 0.00 0.05 0.03 69 1004.7
20260905193053 17 178 1.6 6.4 0.00 0.05 0.03 69 1004.7
20260905192600 17 137 1.6 6.4 0.00 0.05 0.03 70 1004.8
20260905192002 17 204 0.0 4.8 0.00 0.05 0.03 73 1004.9
20260905191539 17 203 1.6 6.4 0.00 0.05 0.03 69 1004.8
20260905191045 18 184 3.2 6.4 0.00 0.05 0.03 68 1004.8
20260905190551 17 180 1.6 4.8 0.00 0.05 0.03 70 1004.8
20260905190025 17 84 1.6 4.8 0.00 0.05 0.03 75 1004.9
20260905185531 17 335 0.0 4.8 0.00 0.05 0.03 76 1004.9
20260905185037 17 333 1.6 4.8 0.00 0.05 0.03 74 1005.0
20260905184503 17 360 1.6 6.4 0.00 0.05 0.03 75 1005.0
20260905184009 17 178 1.6 6.4 0.00 0.05 0.03 76 1005.1
20260905183515 17 344 0.0 3.2 0.00 0.05 0.03 81 1005.1
20260905183108 16 248 0.0 3.2 0.00 0.05 0.03 79 1005.1
20260905182557 16 249 1.6 4.8 0.00 0.05 0.03 80 1005.1
20260905182105 16 241 0.0 4.8 0.00 0.05 0.03 82 1005.2
20260905181539 16 267 1.6 4.8 0.00 0.05 0.03 84 1005.2
20260905181045 15 335 0.0 4.8 0.00 0.05 0.03 84 1005.2
20260905180553 15 335 0.0 4.8 0.00 0.05 0.03 85 1005.2
20260905180027 15 271 1.6 6.4 0.00 0.05 0.03 86 1005.2
20260905175535 15 286 3.2 6.4 0.00 0.05 0.03 87 1005.4
20260905175040 15 264 1.6 6.4 0.00 0.05 0.03 87 1005.3